Weather History for Breckenridge, TX

Change the Weather History Date:

Tuesday, January 21, 2014

  Actual Average (KABI) Record (KABI)
Temperature  
Mean Temperature 44 °F 45 °F  
Max Temperature 54 °F 57 °F 83 °F (1974)
Min Temperature 33 °F 33 °F 4 °F (1888)
Degree Days  
Heating Degree Days 22 20  
Month to date heating degree days 430  
Since 1 July heating degree days 1475  
Cooling Degree Days 0 0  
Month to date cooling degree days 0  
Year to date cooling degree days 0  
Moisture  
Dew Point 19 °F    
Average Humidity 38    
Maximum Humidity 56    
Minimum Humidity 23    
Precipitation  
Precipitation 0.00 in 0.04 in 1.02 in (1904)
Month to date precipitation 0.64  
Year to date precipitation 0.64  
Sea Level Pressure  
Sea Level Pressure 30.33 in    
Wind  
Wind Speed 6 mph (NW)    
Max Wind Speed 12 mph    
Max Gust Speed 17 mph    
Visibility 10 miles    
Events      
T = Trace of Precipitation, MM = Missing Value Source: NWS Daily Summary

Daily Weather History Graph

Daily Weather History Graph

Search for Another Location

Airport:

Trip Planner

Search our weather history database for the weather conditions in past years. The results will help you decide how hot, cold, wet, or windy it might be!

Date:

Astronomy

Jan. 21, 2014 Rise Set
Actual Time 7:36 AM CST 5:58 PM CST
Civil Twilight 7:09 AM CST 6:24 PM CST
Nautical Twilight 6:39 AM CST 6:54 PM CST
Astronomical Twilight 6:10 AM CST 7:23 PM CST
Moon 11:11 PM CST (1/21) 10:25 AM CST (1/21)
Length of Visible Light 11h 14m
Length of Day
10h 21m
Waning Gibbous, 74% of the Moon is Illuminated
Jan 21
Waning Gibbous
Jan 23
Last Quarter
Jan 30
New
Feb 6
First Quarter
Feb 14
Full

Hourly Weather History & Observations

Time (CST) Temp. Windchill Dew Point Humidity Pressure Visibility Wind Dir Wind Speed Gust Speed Precip Events Conditions
12:10 AM 45.7 °F 42.7 °F 20.1 °F 36% 30.31 in 10.0 mi NNW 5.8 mph - N/A   Clear
12:30 AM 45.3 °F 40.6 °F 20.1 °F 37% 30.32 in 10.0 mi NNW 9.2 mph - N/A   Clear
12:50 AM 44.6 °F 40.7 °F 21.0 °F 39% 30.33 in 10.0 mi NNW 6.9 mph - N/A   Clear
1:10 AM 43.3 °F 39.9 °F 21.6 °F 42% 30.33 in 10.0 mi NW 5.8 mph - N/A   Clear
1:30 AM 41.5 °F 39.6 °F 22.8 °F 47% 30.34 in 10.0 mi NW 3.5 mph - N/A   Clear
1:50 AM 39.4 °F 36.1 °F 23.0 °F 52% 30.35 in 10.0 mi NNW 4.6 mph - N/A   Clear
2:10 AM 39.2 °F 33.6 °F 22.8 °F 52% 30.36 in 10.0 mi NNW 8.1 mph - N/A   Clear
2:30 AM 40.6 °F 37.5 °F 21.2 °F 46% 30.36 in 10.0 mi NNW 4.6 mph - N/A   Clear
2:50 AM 40.1 °F 38.0 °F 21.7 °F 48% 30.36 in 10.0 mi NNW 3.5 mph - N/A   Clear
3:10 AM 37.8 °F 35.3 °F 21.9 °F 53% 30.37 in 10.0 mi NNW 3.5 mph - N/A   Clear
3:30 AM 37.2 °F 33.6 °F 21.7 °F 54% 30.38 in 10.0 mi NNW 4.6 mph - N/A   Clear
3:50 AM 38.3 °F 32.5 °F 20.1 °F 48% 30.38 in 10.0 mi NNW 8.1 mph - N/A   Clear
4:10 AM 39.7 °F 34.3 °F 18.5 °F 42% 30.39 in 10.0 mi NNW 8.1 mph - N/A   Clear
4:30 AM 39.6 °F 34.7 °F 18.5 °F 43% 30.40 in 10.0 mi North 6.9 mph - N/A   Clear
4:50 AM 39.2 °F 35.0 °F 18.5 °F 43% 30.40 in 10.0 mi North 5.8 mph - N/A   Clear
5:10 AM 38.3 °F 33.2 °F 18.5 °F 45% 30.41 in 10.0 mi North 6.9 mph - N/A   Clear
5:30 AM 37.9 °F 32.7 °F 18.9 °F 46% 30.41 in 10.0 mi North 6.9 mph - N/A   Clear
5:50 AM 37.4 °F 32.1 °F 18.5 °F 46% 30.43 in 10.0 mi North 6.9 mph - N/A   Clear
6:10 AM 37.4 °F 30.8 °F 19.0 °F 48% 30.44 in 10.0 mi North 9.2 mph - N/A   Clear
6:30 AM 36.5 °F 31.0 °F 19.2 °F 50% 30.45 in 10.0 mi North 6.9 mph - N/A   Clear
6:50 AM 35.1 °F 29.3 °F 19.2 °F 53% 30.45 in 10.0 mi North 6.9 mph - N/A   Clear
7:10 AM 34.0 °F 28.8 °F 19.0 °F 54% 30.45 in 10.0 mi North 5.8 mph - N/A   Clear
7:30 AM 34.0 °F 28.8 °F 19.2 °F 55% 30.46 in 10.0 mi NNE 5.8 mph - N/A   Clear
7:50 AM 33.8 °F 27.7 °F 19.4 °F 56% 30.46 in 10.0 mi NNE 6.9 mph - N/A   Clear
8:10 AM 34.9 °F 29.9 °F 20.1 °F 55% 30.46 in 10.0 mi NNE 5.8 mph - N/A   Clear
8:30 AM 35.8 °F 31.9 °F 20.5 °F 54% 30.46 in 10.0 mi North 4.6 mph - N/A   Clear
8:50 AM 37.2 °F 31.9 °F 20.5 °F 51% 30.47 in 10.0 mi NNE 6.9 mph - N/A   Clear
9:10 AM 38.8 °F 33.2 °F 20.1 °F 47% 30.48 in 10.0 mi North 8.1 mph - N/A   Clear
9:30 AM 39.4 °F 32.3 °F 20.3 °F 46% 30.49 in 10.0 mi North 11.5 mph 17.3 mph N/A   Clear
9:50 AM 40.6 °F 35.4 °F 20.1 °F 44% 30.49 in 10.0 mi North 8.1 mph - N/A   Clear
10:10 AM 41.4 °F 35.7 °F 19.8 °F 42% 30.48 in 10.0 mi NNE 9.2 mph - N/A   Clear
10:30 AM 41.9 °F 35.4 °F 19.0 °F 40% 30.48 in 10.0 mi North 11.5 mph 16.1 mph N/A   Clear
10:50 AM 43.3 °F 38.1 °F 18.5 °F 37% 30.47 in 10.0 mi NNW 9.2 mph - N/A   Clear
11:10 AM 43.7 °F 41.1 °F 17.6 °F 35% 30.47 in 10.0 mi North 4.6 mph - N/A   Clear
11:30 AM 45.0 °F 41.2 °F 17.2 °F 33% 30.46 in 10.0 mi North 6.9 mph - N/A   Clear
11:50 AM 45.3 °F 41.6 °F 16.3 °F 31% 30.45 in 10.0 mi NNW 6.9 mph - N/A   Clear
12:10 PM 47.3 °F - 16.2 °F 29% 30.44 in 10.0 mi North 6.9 mph - N/A   Clear
12:30 PM 47.7 °F - 15.4 °F 28% 30.42 in 10.0 mi North 6.9 mph - N/A   Clear
12:50 PM 47.8 °F - 15.6 °F 28% 30.40 in 10.0 mi NNW 6.9 mph - N/A   Clear
1:10 PM 48.2 °F - 16.3 °F 28% 30.38 in 10.0 mi West 4.6 mph - N/A   Clear
1:30 PM 48.7 °F - 16.2 °F 27% 30.36 in 10.0 mi NW 4.6 mph - N/A   Clear
1:50 PM 49.3 °F - 16.3 °F 27% 30.35 in 10.0 mi NNW 5.8 mph - N/A   Clear
2:10 PM 50.0 °F - 16.7 °F 27% 30.33 in 10.0 mi WSW 5.8 mph - N/A   Clear
2:30 PM 50.9 °F - 17.2 °F 26% 30.31 in 10.0 mi WSW 3.5 mph - N/A   Clear
2:50 PM 52.2 °F - 17.2 °F 25% 30.30 in 10.0 mi Calm Calm - N/A   Clear
3:10 PM 52.7 °F - 17.4 °F 25% 30.29 in 10.0 mi Calm Calm - N/A   Clear
3:30 PM 53.2 °F - 16.5 °F 24% 30.27 in 10.0 mi SSW 4.6 mph - N/A   Clear
3:50 PM 53.8 °F - 16.7 °F 23% 30.27 in 10.0 mi SSW 4.6 mph - N/A   Clear
4:10 PM 53.8 °F - 16.5 °F 23% 30.26 in 10.0 mi SW 4.6 mph - N/A   Clear
4:30 PM 54.1 °F - 17.1 °F 23% 30.25 in 10.0 mi SSW 4.6 mph - N/A   Clear
4:50 PM 54.3 °F - 17.2 °F 23% 30.24 in 10.0 mi SSW 8.1 mph - N/A   Clear
5:10 PM 53.8 °F - 17.4 °F 24% 30.23 in 10.0 mi South 4.6 mph - N/A   Clear
5:30 PM 52.9 °F - 18.0 °F 25% 30.23 in 10.0 mi South 4.6 mph - N/A   Clear
5:50 PM 51.6 °F - 18.1 °F 27% 30.21 in 10.0 mi South 6.9 mph - N/A   Clear
6:10 PM 49.8 °F - 17.8 °F 28% 30.21 in 10.0 mi SSE 6.9 mph - N/A   Clear
6:30 PM 48.7 °F - 18.0 °F 29% 30.21 in 10.0 mi SSE 8.1 mph - N/A   Clear
6:50 PM 47.8 °F - 18.9 °F 32% 30.20 in 10.0 mi SSE 9.2 mph - N/A   Clear
7:10 PM 46.4 °F 42.4 °F 19.4 °F 34% 30.20 in 10.0 mi SSE 8.1 mph - N/A   Clear
7:30 PM 45.7 °F 41.0 °F 19.4 °F 35% 30.20 in 10.0 mi SSE 9.2 mph - N/A   Clear
7:50 PM 45.7 °F 40.6 °F 19.0 °F 35% 30.19 in 10.0 mi SSE 10.4 mph - N/A   Clear
8:10 PM 45.3 °F 40.1 °F 19.2 °F 35% 30.18 in 10.0 mi South 10.4 mph - N/A   Clear
8:30 PM 45.9 °F 41.2 °F 19.4 °F 35% 30.17 in 10.0 mi South 9.2 mph - N/A   Clear
8:50 PM 44.1 °F 39.5 °F 20.1 °F 39% 30.17 in 10.0 mi SSW 8.1 mph - N/A   Clear
9:10 PM 47.3 °F - 20.3 °F 34% 30.16 in 10.0 mi SSW 10.4 mph - N/A   Clear
9:30 PM 47.5 °F - 20.1 °F 34% 30.15 in 10.0 mi SSW 10.4 mph - N/A   Clear
9:50 PM 46.9 °F - 19.9 °F 34% 30.16 in 10.0 mi SSW 9.2 mph - N/A   Clear
10:10 PM 46.2 °F 43.3 °F 19.8 °F 35% 30.16 in 10.0 mi South 5.8 mph - N/A   Clear
10:30 PM 45.7 °F 44.4 °F 19.4 °F 35% 30.16 in 10.0 mi South 3.5 mph - N/A   Clear
10:50 PM 44.4 °F 41.2 °F 19.4 °F 37% 30.16 in 10.0 mi South 5.8 mph - N/A   Clear
11:10 PM 42.3 °F 37.9 °F 20.1 °F 41% 30.15 in 10.0 mi South 6.9 mph - N/A   Clear
11:30 PM 42.8 °F 39.3 °F 19.9 °F 40% 30.15 in 10.0 mi SSW 5.8 mph - N/A   Clear
11:50 PM 40.6 °F 36.0 °F 20.3 °F 44% 30.14 in 10.0 mi South 6.9 mph - N/A   Clear